Alexandria, LA

7:37 AM CDT on September 27, 2016 (GMT -0500)
Alexandria International

Weather History for KAEX - January, 2011

Change the Weather History Date:

Tuesday, January 4, 2011

  Actual Average Record
Temperature  
Mean Temperature 58 °F 49 °F  
Max Temperature 69 °F 59 °F 81 °F (1989)
Min Temperature 46 °F 39 °F 11 °F (1911)
Degree Days  
Heating Degree Days 7 16  
Month to date heating degree days 72 64  
Since 1 July heating degree days 879 853  
Growing Degree Days 7 (Base 50)    
Moisture  
Dew Point 43 °F    
Average Humidity 66    
Maximum Humidity 86    
Minimum Humidity 45    
Precipitation  
Precipitation 0.03 in 0.17 in 2.25 in (2007)
Month to date precipitation 0.04 0.58  
Year to date precipitation 0.04 0.58  
Snow  
Snow 0.00 in - 0.00 in ()
Month to date snowfall 0.0  
Since 1 July snowfall 0.0  
Snow Depth 0.00 in    
Sea Level Pressure  
Sea Level Pressure 30.11 in    
Wind  
Wind Speed 2 mph (SE)    
Max Wind Speed 7 mph    
Max Gust Speed 9 mph    
Visibility 10 miles    
Events Rain    
T = Trace of Precipitation, MM = Missing Value Source: NWS Daily Summary

Daily Weather History Graph

Daily Weather History Graph

Search for Another Location

Airport or City:

Trip Planner

Search our weather history database for the weather conditions in past years. The results will help you decide how hot, cold, wet, or windy it might be!

Date:

Astronomy

Jan. 04, 2011 Rise Set
Actual Time 7:09 AM CST 5:20 PM CST
Civil Twilight 6:43 AM CST 5:47 PM CST
Nautical Twilight 6:13 AM CST 6:17 PM CST
Astronomical Twilight 5:43 AM CST 6:46 PM CST
Moon 7:19 AM CST (1/4) 5:53 PM CST (1/4)
Length of Visible Light 11h 04m
Length of Day
10h 10m
New Moon, 0% of the Moon is Illuminated
Jan 4
New Moon
Jan 12
First Quarter
Jan 19
Full
Jan 26
Last Quarter
Feb 2
New

Hourly Weather History & Observations

Time (CST) Temp. Windchill Dew Point Humidity Pressure Visibility Wind Dir Wind Speed Gust Speed Precip Events Conditions
12:53 AM 46.0 °F - 32.0 °F 58% 30.17 in 10.0 mi Calm Calm - N/A   Overcast
1:53 AM 46.0 °F 43.9 °F 33.1 °F 61% 30.16 in 10.0 mi SE 4.6 mph - N/A   Overcast
2:53 AM 46.9 °F - 35.1 °F 63% 30.15 in 10.0 mi Calm Calm - N/A   Overcast
3:53 AM 46.9 °F - 37.0 °F 68% 30.14 in 10.0 mi SE 3.5 mph - N/A   Overcast
4:53 AM 48.0 °F - 37.0 °F 66% 30.15 in 10.0 mi Calm Calm - N/A   Overcast
5:53 AM 48.0 °F - 37.0 °F 66% 30.16 in 10.0 mi Calm Calm - N/A   Overcast
6:53 AM 48.0 °F - 37.0 °F 66% 30.17 in 10.0 mi Calm Calm - N/A   Overcast
7:53 AM 48.0 °F - 39.0 °F 71% 30.17 in 10.0 mi SSE 3.5 mph - N/A   Overcast
8:53 AM 48.9 °F - 39.0 °F 69% 30.18 in 10.0 mi SE 4.6 mph - N/A   Overcast
9:53 AM 52.0 °F - 37.9 °F 59% 30.19 in 10.0 mi SE 3.5 mph - N/A   Overcast
10:53 AM 55.0 °F - 42.1 °F 62% 30.19 in 10.0 mi SE 4.6 mph - N/A   Overcast
11:53 AM 60.1 °F - 45.0 °F 57% 30.15 in 10.0 mi Calm Calm - N/A   Clear
12:53 PM 64.0 °F - 46.0 °F 52% 30.12 in 10.0 mi Calm Calm - N/A   Clear
1:53 PM 66.0 °F - 48.0 °F 52% 30.08 in 10.0 mi SSE 4.6 mph - N/A   Clear
2:53 PM 68.0 °F - 46.9 °F 47% 30.07 in 10.0 mi Calm Calm - N/A   Clear
3:53 PM 66.9 °F - 46.0 °F 47% 30.06 in 10.0 mi Calm Calm - N/A   Partly Cloudy
4:53 PM 66.0 °F - 46.9 °F 50% 30.06 in 10.0 mi SSE 4.6 mph - N/A   Partly Cloudy
5:53 PM 60.1 °F - 48.9 °F 67% 30.05 in 10.0 mi SE 3.5 mph - N/A   Clear
6:53 PM 59.0 °F - 48.9 °F 69% 30.05 in 10.0 mi SSE 5.8 mph - N/A   Partly Cloudy
7:53 PM 57.0 °F - 48.0 °F 72% 30.04 in 10.0 mi SSE 4.6 mph - N/A   Mostly Cloudy
8:53 PM 57.0 °F - 50.0 °F 77% 30.05 in 10.0 mi SSE 3.5 mph - 0.00 in Rain Light Rain
9:53 PM 55.0 °F - 52.0 °F 89% 30.01 in 10.0 mi Calm Calm - 0.01 in Rain Light Rain
10:53 PM 55.0 °F - 53.1 °F 93% 30.03 in 10.0 mi Calm Calm - 0.01 in Rain Light Rain
11:53 PM 55.0 °F - 52.0 °F 89% 30.01 in 10.0 mi Variable 3.5 mph - 0.01 in Rain Light Rain